Date,TemperatureHighF,TemperatureAvgF,TemperatureLowF,DewpointHighF,DewpointAvgF,DewpointLowF,HumidityHigh,HumidityAvg,HumidityLow,PressureMaxIn,PressureMinIn,WindSpeedMaxMPH,WindSpeedAvgMPH,GustSpeedMaxMPH,PrecipitationSumIn
2013-12-1,58,44,30,24,18,14,54,37,21,30.13,29.82,10,1,15,0.00
2013-12-2,61,52,40,24,21,18,49,31,21,29.82,29.41,8,1,14,0.00
2013-12-3,58,35,12,28,17,7,84,52,25,29.76,29.30,7,1,11,0.00
2013-12-4,12,7,-1,6,1,-7,82,78,71,30.40,29.76,5,0,7,0.00
2013-12-5,8,0,-7,-1,-5,-11,85,77,66,30.55,30.38,3,0,5,0.00
2013-12-6,9,1,-4,0,-4,-8,85,78,63,30.64,30.54,2,0,3,0.00
2013-12-7,9,2,-4,1,-3,-8,86,80,67,30.62,30.19,3,0,5,0.00
2013-12-8,20,9,3,10,3,-1,84,76,63,30.34,30.09,3,0,4,0.00
2013-12-9,28,14,0,5,-1,-5,81,55,26,30.42,30.29,3,0,6,0.00
2013-12-10,47,28,12,17,10,-2,65,47,26,30.40,30.07,4,1,8,0.11
2013-12-11,33,22,12,18,13,8,86,71,50,30.49,30.37,2,0,5,0.00
2013-12-12,56,30,12,26,16,8,86,61,18,30.49,30.04,2,0,4,0.02
2013-12-13,50,31,16,18,15,11,86,57,23,30.24,29.90,8,0,9,0.00
2013-12-14,46,32,22,19,16,12,83,55,26,30.36,30.21,3,0,7,0.00
2013-12-15,58,41,26,21,16,10,67,40,19,30.24,30.10,4,1,10,0.00
2013-12-16,62,50,33,21,14,7,47,25,12,30.14,29.98,8,1,15,0.00
2013-12-17,65,45,30,18,15,13,53,33,14,30.26,30.01,2,0,6,0.00
2013-12-18,68,52,41,18,14,10,40,23,12,30.00,29.57,5,1,8,0.00
2013-12-19,45,33,16,24,19,13,88,58,41,29.91,29.45,4,1,14,0.00
2013-12-20,24,20,16,19,16,13,89,86,80,29.93,29.81,2,0,4,0.00
2013-12-21,29,22,13,23,18,10,92,85,71,30.08,29.74,4,0,7,0.00
2013-12-22,40,28,17,21,16,10,92,65,30,30.34,30.07,7,1,12,0.02
2013-12-23,48,28,12,23,18,9,90,69,32,30.42,30.21,6,0,6,0.01
2013-12-24,55,38,23,27,20,12,72,50,27,30.29,29.98,7,1,20,0.00
2013-12-25,47,30,16,13,9,4,77,47,18,30.50,30.28,3,0,7,0.00
2013-12-26,54,38,28,14,11,4,46,34,18,30.37,30.25,3,0,8,0.00
2013-12-27,60,42,32,20,17,13,50,39,20,30.28,30.01,3,0,5,0.00
2013-12-28,59,38,20,26,20,16,90,53,23,30.25,29.78,10,1,13,0.00
2013-12-29,38,25,13,19,14,10,89,66,32,30.32,30.05,4,0,12,0.05
2013-12-30,49,38,31,16,13,10,55,37,23,30.29,30.10,12,2,16,0.00
2013-12-31,57,42,31,21,18,12,57,40,23,30.09,29.88,6,1,12,0.00